Tracking 20232 objects as of 20-Jan-2020
HD Live streaming from Space Station
objects crossing your sky now

STARLINK 1036

Track STARLINK 1036 now!
10-day predictions
STARLINK 1036 is classified as:


NORAD ID: 44741
Int'l Code: 2019-074AE
Perigee: 457.4 km
Apogee: 458.9 km
Inclination: 53.0 °
Period: 93.6 minutes
Semi major axis: 6829 km
RCS: Unknown
Launch date: November 11, 2019
Source: United States (US)
Launch site: AIR FORCE EASTERN TEST RANGE (AFETR)
aabbcc
Your satellite tracking list
Your tracking list is empty




NASA's NSSDC Master Catalog

Two Line Element Set (TLE):
1 44741U 19074AE  20020.91667824 -.00075198  00000-0 -19694-2 0  9991
2 44741  53.0058 183.2888 0001144  72.1051 304.3605 15.38339663 11052
Source of the keplerian elements: AFSPC